Location: Maiden
(35.5760°N, 81.2120°W)
Time: 01:17:46
(UTC-04:00)

A-11 Canister half - Pass Details

Date: 04 August 2020
Orbit: 1527 x 1682 km, 47.3° (Epoch: 25 September)

Event Time Altitude Azimuth Distance (km) Brightness Sun altitude
Rises 14:48:24 0° 241° (WSW) 4,912 12.0 64.6°
Reaches altitude 10° 14:51:34 10° 243° (WSW) 3,933 11.7 64.2°
Maximum altitude 15:01:43 76° 328° (NNW) 1,723 10.5 62.5°
Drops below altitude 10° 15:11:51 10° 55° (NE) 3,912 11.0 60.9°
Sets 15:15:00 0° 57° (ENE) 4,886 11.3 60.3°
